Regional Weather Roundup
Issued by NWS Sioux Falls, SD

Home | Current Version | Previous Version | Graphics & Text | Print | Product List | Glossary On
Versions: 1 2 3 4 5 6 7 8 9 10 11 12 13 14 15 16 17 18 19 20 21 22 23 24 25 26 27 28 29 30 31 32 33 34 35 36 37 38 39 40 41 42 43 44 45 46 47 48 49 50
000
ASUS43 KFSD 280610
RWRFSD

WEATHER ROUNDUP FOR SE SOUTH DAKOTA/SW MINNESOTA/NW IOWA
NATIONAL WEATHER SERVICE SIOUX FALLS SD
1200 AM CST TUE FEB 28 2017

NOTE: "FAIR" INDICATES FEW OR NO CLOUDS BELOW 12,000 FEET WITH NO
SIGNIFICANT WEATHER AND OR OBSTRUCTIONS TO VISIBILITY.


SDZ038>040-050-052>070-280700-
SOUTHEAST SOUTH DAKOTA

CITY           SKY/WX    TMP DP  RH WIND       PRES   REMARKS
BROOKINGS      CLOUDY    33  29  85 N5        29.70F WCI  29
CHAMBERLAIN    CLOUDY    34  27  75 N8        29.72R WCI  28
6HR MIN TEMP:  34; 6HR MAX TEMP:  44;

HURON          CLOUDY    30  27  88 NE6       29.72S WCI  24
6HR MIN TEMP:  28; 6HR MAX TEMP:  45;

MADISON        MOCLDY    32  32 100 E3        29.69F
MITCHELL       CLOUDY    31  29  92 N3        29.71S
6HR MIN TEMP:  28; 6HR MAX TEMP:  42;

SIOUX FALLS    CLOUDY    36  31  82 E5        29.70F
6HR MIN TEMP:  35; 6HR MAX TEMP:  41;

WINNER         CLOUDY    33  28  81 N7        29.69R WCI  27
YANKTON        CLOUDY    30  27  86 E7        29.67S WCI  23
$$

MNZ071-072-080-081-089-090-097-098-280700-
SOUTHWEST MINNESOTA

CITY           SKY/WX    TMP DP  RH WIND       PRES   REMARKS
FAIRMONT       CLOUDY    38  32  79 SE13      29.75F
JACKSON        CLEAR     36  32  87 SE10      29.73F
LUVERNE        MOCLDY    36  30  80 CALM      29.72S
MARSHALL       PTCLDY    31  28  89 E5        29.74F WCI  26
6HR MIN TEMP:  31; 6HR MAX TEMP:  43; 6HR PCP: TRACE;

MONTEVIDEO     CLOUDY    34  30  86 E6        29.77F WCI  29
PIPESTONE      CLOUDY    36  28  75 SE5       29.69F
REDWOOD FALLS  CLOUDY    35  29  78 SE7       29.75F WCI  29
TRACY          CLEAR     31  29  92 E6        29.72F WCI  25
WINDOM         CLEAR     34  30  86 E5        29.73F WCI  30
WORTHINGTON    MOCLDY    35  30  82 SE9       29.71  WCI  28
$$

IAZ001>003-012>014-020>022-031-032-NEZ013-014-SDZ071-280700-
NORTHWEST IOWA

CITY           SKY/WX    TMP DP  RH WIND       PRES   REMARKS
CHEROKEE       CLEAR     36  32  85 CALM      29.71F
DENISON        CLOUDY    41  32  70 VRB7      29.68F
ESTHERVILLE    CLEAR     35  32  88 SE10      29.73F WCI  27
LE MARS        PTCLDY    37  30  75 CALM      29.70F
SHELDON        PTCLDY    36  36 100 SE9       29.68F
SIOUX CITY     CLOUDY    35  28  75 E7        29.68F WCI  29
6HR MIN TEMP:  35; 6HR MAX TEMP:  43;

SPENCER        MOCLDY    39  32  76 SE13      29.71F
6HR MIN TEMP:  36; 6HR MAX TEMP:  39;

STORM LAKE     CLEAR     36  30  80 SE10      29.71F
$$

ABBREVIATIONS USED IN REMARKS
   TC - TEMPERATURE IN CELSIUS
  WCI - WIND CHILL INDEX
   HX - HEAT INDEX
  VSB - VISIBILITY




USA.gov is the U.S. government's official web portal to all federal, state and local government web resources and services.